AEZ2115 LIRF-LICB

Flight info

Callsign AEZ2115
Flight time 0h 53m
Altitude 35000
Route RIFFI DCT BEROL DCT ROSAS DCT LIBRO
Aircraft B738/M-SDE2E3FGHIRWXY/LB1

Departure

Time 2026-05-05 05:34
Airport Rome–Fiumicino Leonardo da Vinci International Airport (LIRF)

Arrival

Time 2026-05-05 06:27
Airport Comiso Airport (LICB)
Time Latitude Longitude Altitude Speed Heading
2026-05-05 05:24 41.80057 12.26546 13 ft 0 kts 250°
2026-05-05 05:31 41.80056 12.26545 14 ft 1 kts 250°
2026-05-05 05:31 41.80050 12.26511 13 ft 7 kts 270°
2026-05-05 05:32 41.80107 12.26452 13 ft 15 kts 339°
2026-05-05 05:32 41.80221 12.26409 13 ft 19 kts
2026-05-05 05:32 41.80306 12.26274 15 ft 22 kts 294°
2026-05-05 05:32 41.80423 12.26166 15 ft 23 kts
2026-05-05 05:33 41.80584 12.26140 15 ft 25 kts 341°
2026-05-05 05:33 41.80697 12.26062 17 ft 15 kts 278°
2026-05-05 05:33 41.80629 12.25737 16 ft 70 kts 249°
2026-05-05 05:33 41.80377 12.24816 15 ft 137 kts 249°
2026-05-05 05:34 41.79989 12.23441 239 ft 167 kts 248°
2026-05-05 05:34 41.79607 12.21984 1032 ft 163 kts 245°
2026-05-05 05:34 41.79024 12.20717 1732 ft 162 kts 215°
2026-05-05 05:34 41.78110 12.19750 2343 ft 174 kts 214°
2026-05-05 05:35 41.77156 12.18690 3008 ft 184 kts 217°
2026-05-05 05:35 41.76177 12.17577 3703 ft 189 kts 218°
2026-05-05 05:35 41.75007 12.16798 4331 ft 199 kts 190°
2026-05-05 05:35 41.73543 12.16783 4643 ft 226 kts 181°
2026-05-05 05:36 41.71862 12.16874 5067 ft 250 kts 181°
2026-05-05 05:36 41.70114 12.16977 5827 ft 261 kts 181°
2026-05-05 05:36 41.68270 12.17080 6618 ft 268 kts 181°
2026-05-05 05:36 41.66390 12.17180 7519 ft 271 kts 181°
2026-05-05 05:37 41.64493 12.17277 8418 ft 275 kts 181°
2026-05-05 05:37 41.62572 12.17372 9321 ft 278 kts 182°
2026-05-05 05:37 41.60622 12.17465 10206 ft 281 kts 182°
2026-05-05 05:37 41.58652 12.17557 11002 ft 286 kts 182°
2026-05-05 05:38 41.56649 12.17651 11797 ft 290 kts 182°
2026-05-05 05:38 41.54626 12.17560 12624 ft 291 kts 192°
2026-05-05 05:38 41.52631 12.17085 13535 ft 292 kts 195°
2026-05-05 05:38 41.50588 12.16756 14315 ft 303 kts 180°
2026-05-05 05:39 41.48541 12.17597 15059 ft 318 kts 154°
2026-05-05 05:39 41.46778 12.19504 15605 ft 338 kts 140°
2026-05-05 05:39 41.45062 12.21816 15756 ft 362 kts 137°
2026-05-05 05:39 41.43277 12.24338 15920 ft 384 kts 137°
2026-05-05 05:40 41.41429 12.26966 16175 ft 400 kts 137°
2026-05-05 05:40 41.39497 12.29693 16708 ft 407 kts 137°
2026-05-05 05:40 41.37537 12.32433 17398 ft 410 kts 137°
2026-05-05 05:40 41.35554 12.35180 18070 ft 413 kts 138°
2026-05-05 05:41 41.33539 12.37953 18651 ft 418 kts 138°
2026-05-05 05:41 41.31503 12.40745 19170 ft 422 kts 138°
2026-05-05 05:41 41.29445 12.43563 19652 ft 427 kts 138°
2026-05-05 05:41 41.27392 12.46375 20223 ft 430 kts 138°
2026-05-05 05:42 41.25304 12.49230 20825 ft 432 kts 138°
2026-05-05 05:42 41.23178 12.52070 21341 ft 433 kts 143°
2026-05-05 05:42 41.20662 12.54193 21800 ft 426 kts 163°
2026-05-05 05:42 41.17882 12.55523 22370 ft 425 kts 166°
2026-05-05 05:43 41.15071 12.56818 22887 ft 429 kts 166°
2026-05-05 05:43 41.12246 12.58120 23369 ft 433 kts 166°
2026-05-05 05:43 41.09395 12.59446 23824 ft 436 kts 166°
2026-05-05 05:43 41.06530 12.60793 24226 ft 439 kts 165°
2026-05-05 05:44 41.03638 12.62162 24636 ft 441 kts 165°
2026-05-05 05:44 41.00737 12.63541 25055 ft 444 kts 165°
2026-05-05 05:44 40.97818 12.64932 25459 ft 446 kts 165°
2026-05-05 05:44 40.94890 12.66326 25857 ft 448 kts 165°
2026-05-05 05:45 40.91947 12.67726 26237 ft 451 kts 166°
2026-05-05 05:45 40.88988 12.69132 26613 ft 454 kts 166°
2026-05-05 05:45 40.86010 12.70545 26993 ft 456 kts 166°
2026-05-05 05:45 40.83055 12.71946 27322 ft 459 kts 166°
2026-05-05 05:46 40.80000 12.73393 27666 ft 461 kts 166°
2026-05-05 05:46 40.77011 12.74807 28002 ft 464 kts 166°
2026-05-05 05:46 40.73965 12.76247 28345 ft 466 kts 166°
2026-05-05 05:46 40.70870 12.77708 28640 ft 469 kts 166°
2026-05-05 05:47 40.67816 12.79147 28815 ft 474 kts 166°
2026-05-05 05:47 40.64708 12.80611 29124 ft 476 kts 166°
2026-05-05 05:47 40.61581 12.82084 29469 ft 477 kts 167°
2026-05-05 05:47 40.58450 12.83558 29808 ft 479 kts 167°
2026-05-05 05:48 40.55318 12.85032 30226 ft 478 kts 167°
2026-05-05 05:48 40.52196 12.86500 30633 ft 475 kts 167°
2026-05-05 05:48 40.49090 12.87959 31030 ft 474 kts 167°
2026-05-05 05:48 40.45982 12.89416 31366 ft 474 kts 167°
2026-05-05 05:49 40.42879 12.90867 31695 ft 474 kts 167°
2026-05-05 05:49 40.39767 12.92322 32038 ft 473 kts 167°
2026-05-05 05:49 40.36678 12.93764 32356 ft 473 kts 167°
2026-05-05 05:49 40.33575 12.95212 32714 ft 472 kts 167°
2026-05-05 05:50 40.30484 12.96654 33102 ft 470 kts 167°
2026-05-05 05:50 40.27409 12.98087 33459 ft 469 kts 167°
2026-05-05 05:50 40.24331 12.99519 33809 ft 468 kts 167°
2026-05-05 05:50 40.21263 13.00945 34151 ft 468 kts 167°
2026-05-05 05:51 40.18191 13.02329 34467 ft 465 kts 169°
2026-05-05 05:51 40.15112 13.03586 34724 ft 463 kts 170°
2026-05-05 05:51 40.12017 13.04783 34962 ft 463 kts 170°
2026-05-05 05:51 40.08916 13.05964 35091 ft 466 kts 170°
2026-05-05 05:52 40.02661 13.08363 35094 ft 468 kts 170°
2026-05-05 05:52 39.96457 13.10792 35088 ft 462 kts 169°
2026-05-05 05:53 39.90302 13.13214 35098 ft 461 kts 169°
2026-05-05 05:53 39.84190 13.15613 35095 ft 462 kts 169°
2026-05-05 05:54 39.78026 13.18027 35103 ft 463 kts 169°
2026-05-05 05:54 39.71848 13.20443 35081 ft 464 kts 169°
2026-05-05 05:55 39.65643 13.22864 35092 ft 465 kts 170°
2026-05-05 05:55 39.59470 13.25269 35105 ft 466 kts 170°
2026-05-05 05:56 39.53245 13.27690 35103 ft 468 kts 170°
2026-05-05 05:56 39.46997 13.30115 35086 ft 469 kts 170°
2026-05-05 05:57 39.40735 13.32541 35103 ft 470 kts 170°
2026-05-05 05:57 39.34467 13.34965 35103 ft 470 kts 170°
2026-05-05 05:58 39.28191 13.37387 35102 ft 471 kts 170°
2026-05-05 05:58 39.21902 13.39810 35082 ft 472 kts 169°
2026-05-05 05:59 39.15611 13.42229 35105 ft 472 kts 169°
2026-05-05 05:59 39.09309 13.44648 35101 ft 473 kts 169°
2026-05-05 06:00 39.03027 13.47054 35113 ft 474 kts 169°
2026-05-05 06:00 38.96699 13.49474 35113 ft 475 kts 169°
2026-05-05 06:01 38.90355 13.51897 35108 ft 476 kts 169°
2026-05-05 06:01 38.84048 13.54626 35095 ft 484 kts 159°
2026-05-05 06:02 38.78185 13.58998 35100 ft 489 kts 153°
2026-05-05 06:02 38.72378 13.63570 35103 ft 490 kts 152°
2026-05-05 06:03 38.66546 13.68095 35104 ft 490 kts 153°
2026-05-05 06:03 38.60698 13.72568 35102 ft 490 kts 153°
2026-05-05 06:04 38.54878 13.76993 35102 ft 489 kts 153°
2026-05-05 06:04 38.49017 13.81441 34652 ft 494 kts 152°
2026-05-05 06:05 38.46068 13.83676 34037 ft 492 kts 152°
2026-05-05 06:05 38.43130 13.85903 33287 ft 491 kts 152°
2026-05-05 06:05 38.40186 13.88132 32536 ft 491 kts 152°
2026-05-05 06:05 38.37251 13.90353 31802 ft 491 kts 152°
2026-05-05 06:06 38.34308 13.92578 31048 ft 491 kts 152°
2026-05-05 06:06 38.31369 13.94796 30335 ft 491 kts 152°
2026-05-05 06:06 38.28448 13.97001 29727 ft 485 kts 152°
2026-05-05 06:06 38.25555 13.99182 29113 ft 480 kts 152°
2026-05-05 06:07 38.22695 14.01337 28545 ft 475 kts 152°
2026-05-05 06:07 38.19901 14.03439 27982 ft 470 kts 152°
2026-05-05 06:07 38.17094 14.05549 27420 ft 466 kts 152°
2026-05-05 06:07 38.14324 14.07629 26858 ft 462 kts 152°
2026-05-05 06:08 38.11566 14.09697 26300 ft 458 kts 152°
2026-05-05 06:08 38.08832 14.11746 25753 ft 454 kts 152°
2026-05-05 06:08 38.06119 14.13777 25210 ft 451 kts 152°
2026-05-05 06:08 38.03423 14.15794 24669 ft 448 kts 152°
2026-05-05 06:09 38.00746 14.17795 24114 ft 445 kts 152°
2026-05-05 06:09 37.98082 14.19785 23540 ft 444 kts 152°
2026-05-05 06:09 37.95425 14.21767 22925 ft 441 kts 152°
2026-05-05 06:09 37.92795 14.23728 22344 ft 438 kts 152°
2026-05-05 06:10 37.90175 14.25681 21808 ft 434 kts 152°
2026-05-05 06:10 37.88456 14.26961 21452 ft 432 kts 152°
2026-05-05 06:10 37.85872 14.28883 20912 ft 429 kts 152°
2026-05-05 06:10 37.83309 14.30789 20398 ft 425 kts 152°
2026-05-05 06:11 37.80764 14.32679 19878 ft 422 kts 151°
2026-05-05 06:11 37.78235 14.34556 19371 ft 420 kts 152°
2026-05-05 06:11 37.75721 14.36421 18831 ft 417 kts 152°
2026-05-05 06:11 37.73226 14.38270 18320 ft 414 kts 152°
2026-05-05 06:12 37.70750 14.40104 17734 ft 411 kts 151°
2026-05-05 06:12 37.68296 14.41920 17188 ft 406 kts 151°
2026-05-05 06:12 37.65873 14.43712 16684 ft 401 kts 151°
2026-05-05 06:12 37.63476 14.45482 16185 ft 397 kts 152°
2026-05-05 06:13 37.60977 14.46865 15668 ft 390 kts 169°
2026-05-05 06:13 37.58327 14.47401 15225 ft 383 kts 174°
2026-05-05 06:13 37.55725 14.47883 14736 ft 380 kts 173°
2026-05-05 06:13 37.53120 14.48382 14262 ft 378 kts 173°
2026-05-05 06:14 37.50525 14.48893 13750 ft 376 kts 173°
2026-05-05 06:14 37.47953 14.49409 13232 ft 374 kts 173°
2026-05-05 06:14 37.45389 14.49929 12725 ft 371 kts 173°
2026-05-05 06:14 37.42854 14.50446 12226 ft 368 kts 172°
2026-05-05 06:15 37.40336 14.50960 11749 ft 365 kts 172°
2026-05-05 06:15 37.37839 14.51470 11277 ft 362 kts 172°
2026-05-05 06:15 37.35365 14.51976 10953 ft 355 kts 172°
2026-05-05 06:15 37.32964 14.52467 10795 ft 344 kts 172°
2026-05-05 06:16 37.30638 14.52943 10646 ft 334 kts 172°
2026-05-05 06:16 37.28376 14.53404 10492 ft 324 kts 172°
2026-05-05 06:16 37.26176 14.53853 10368 ft 315 kts 172°
2026-05-05 06:16 37.24041 14.54287 10242 ft 307 kts 172°
2026-05-05 06:17 37.21961 14.54710 10087 ft 300 kts 172°
2026-05-05 06:17 37.19904 14.55127 9785 ft 299 kts 172°
2026-05-05 06:17 37.17859 14.55542 9404 ft 297 kts 172°
2026-05-05 06:17 37.15828 14.55954 9060 ft 292 kts 172°
2026-05-05 06:18 37.13825 14.56361 8767 ft 290 kts 172°
2026-05-05 06:18 37.11868 14.56758 8479 ft 289 kts 172°
2026-05-05 06:18 37.09880 14.57161 8191 ft 287 kts 171°
2026-05-05 06:18 37.07910 14.57560 7915 ft 286 kts 171°
2026-05-05 06:19 37.05978 14.57952 7787 ft 278 kts 171°
2026-05-05 06:19 37.04093 14.58334 7655 ft 271 kts 171°
2026-05-05 06:19 37.02257 14.58705 7527 ft 264 kts 171°
2026-05-05 06:19 37.00460 14.59018 7397 ft 257 kts 180°
2026-05-05 06:20 36.98796 14.58433 7230 ft 249 kts 217°
2026-05-05 06:20 36.97788 14.56759 7016 ft 242 kts 251°
2026-05-05 06:20 36.97292 14.54770 6797 ft 239 kts 255°
2026-05-05 06:20 36.96824 14.52777 6561 ft 239 kts 255°
2026-05-05 06:21 36.96353 14.50784 6301 ft 238 kts 254°
2026-05-05 06:21 36.95876 14.48804 6054 ft 237 kts 254°
2026-05-05 06:21 36.95395 14.46836 5808 ft 236 kts 254°
2026-05-05 06:21 36.94913 14.44875 5568 ft 235 kts 253°
2026-05-05 06:22 36.94433 14.42928 5324 ft 235 kts 253°
2026-05-05 06:22 36.93927 14.40991 5068 ft 234 kts 245°
2026-05-05 06:22 36.92896 14.39463 4809 ft 233 kts 211°
2026-05-05 06:22 36.91373 14.38894 4572 ft 229 kts 179°
2026-05-05 06:23 36.89862 14.39365 4361 ft 222 kts 150°
2026-05-05 06:23 36.88774 14.40669 4102 ft 217 kts 121°
2026-05-05 06:23 36.88354 14.42435 3858 ft 212 kts 91°
2026-05-05 06:23 36.88689 14.44144 3647 ft 206 kts 58°
2026-05-05 06:24 36.89496 14.45568 3544 ft 195 kts 56°
2026-05-05 06:24 36.90299 14.46908 3319 ft 192 kts 52°
2026-05-05 06:24 36.91135 14.48192 3075 ft 190 kts 51°
2026-05-05 06:24 36.91976 14.49457 2829 ft 188 kts 51°
2026-05-05 06:25 36.92808 14.50708 2585 ft 186 kts 51°
2026-05-05 06:25 36.93631 14.51945 2335 ft 184 kts 51°
2026-05-05 06:25 36.94441 14.53163 2088 ft 179 kts 51°
2026-05-05 06:25 36.95217 14.54329 1857 ft 170 kts 51°
2026-05-05 06:26 36.95952 14.55433 1644 ft 158 kts 51°
2026-05-05 06:26 36.96652 14.56487 1407 ft 157 kts 51°
2026-05-05 06:26 36.97337 14.57511 1220 ft 150 kts 50°
2026-05-05 06:26 36.97993 14.58501 996 ft 146 kts 51°
2026-05-05 06:27 36.98640 14.59473 804 ft 146 kts 50°
2026-05-05 06:27 36.99709 14.61073 718 ft 46 kts 50°
2026-05-05 06:27 36.99884 14.61329 718 ft 32 kts 41°
2026-05-05 06:28 37.00062 14.61457 720 ft 29 kts 22°
2026-05-05 06:28 37.00144 14.61410 722 ft 15 kts 244°
2026-05-05 06:28 37.00075 14.61305 720 ft 17 kts 230°
2026-05-05 06:28 36.99980 14.61163 720 ft 24 kts 231°
2026-05-05 06:29 36.99874 14.61004 720 ft 23 kts 230°
2026-05-05 06:29 36.99790 14.60879 720 ft 2 kts 230°
2026-05-05 06:29 36.99780 14.60865 720 ft 3 kts 230°
2026-05-05 06:29 36.99769 14.60839 722 ft 3 kts 263°
2026-05-05 06:30 36.99787 14.60813 723 ft 5 kts 321°
2026-05-05 06:30 36.99805 14.60799 720 ft 0 kts 345°
2026-05-05 06:30 36.99807 14.60798 720 ft 0 kts 346°